Location: Rio Negrinho
(26.2394°S, 49.4999°W)
Time: 17:29:10
(UTC+00:00)

Hubble Space Telescope - Pass Details

Date: 02 August 2021
Orbit: 535 x 539 km, 28.5° (Epoch: 22 September)

Event Time Altitude Azimuth Distance (km) Brightness Sun altitude
Exits shadow 08:40:02 37° 245° (WSW) 843 1.2 -17.4°
Maximum altitude 08:41:27 62° 179° (S) 607 0.9 -17.0°
Drops below altitude 10° 08:45:34 10° 98° (E) 1,795 4.6 -16.1°
Sets 08:47:52 0° 94° (E) 2,686 5.8 -15.6°
